カタログに戻る

DELTA 1 DEB

運用中UNKNOWN
NORAD 12536·DEBRIS·🇺🇸 United States

打ち上げ Jul 29, 1976 から Vandenberg Space Force Base

Loading…

次のパス (今後24時間)

TLE

最新Source: Space-Track

元期: Sep 14, 2026, 10:49 UTC

1 12536U 76077DR  26257.45071854 -.00002908  00000-0 -31653-1 0  9990
2 12536 101.7686 337.3362 0517239  64.3169 359.5333 11.80127813 64408

AllMySatでDELTA 1 DEBをリアルタイム追跡

Download on the App Store